Regional Weather Roundup
Issued by NWS

Home | Current Version | Previous Version | Text Only | Print | Product List | Glossary On
Versions: 1 2 3 4 5 6 7 8 9 10 11 12 13 14 15 16 17 18 19 20 21 22 23 24 25 26 27 28 29 30 31 32 33 34 35 36 37 38 39 40 41 42 43 44 45 46 47 48 49 50
000
ASUS43 KBIS 230902
RWRND

NORTH DAKOTA REGIONAL WEATHER ROUNDUP
NATIONAL WEATHER SERVICE BISMARCK ND
400 AM CDT FRI JUN 23 2017

NOTE: "FAIR" INDICATES FEW OR NO CLOUDS BELOW 12,000 FEET WITH NO
SIGNIFICANT WEATHER AND/OR OBSTRUCTIONS TO VISIBILITY.


NDZ001>003-009>011-017-231000-
NORTHWEST NORTH DAKOTA

CITY           SKY/WX    TMP DP  RH WIND       PRES   REMARKS
WILLISTON      CLOUDY    49  44  83 W10       30.07R
MINOT          CLOUDY    55  47  74 NW23G30   29.92S
MINOT AFB      CLOUDY    54  47  75 NW18G30   29.92R
$$

NDZ018>021-031>035-040>046-231000-
SOUTHWEST NORTH DAKOTA

CITY           SKY/WX    TMP DP  RH WIND       PRES   REMARKS
BISMARCK       CLOUDY    57  47  69 NW20G28   29.96R
DICKINSON      CLOUDY    49  46  90 NW16G25   30.05R
GARRISON         N/A     52  46  80 NW20G32   29.94S
HETTINGER ARPT CLOUDY    52  43  71 NW21G26   30.09S
$$

NDZ004>008-012>016-024-026-027-054-231000-
NORTHEAST NORTH DAKOTA

CITY           SKY/WX    TMP DP  RH WIND       PRES   REMARKS
GRAND FORKS    CLOUDY    61  54  77 NW18G24   29.71R
GRND FRKS AFB  MOCLDY    60  52  76 NW15G24   29.72R
DEVILS LAKE    CLOUDY    57  51  80 NW24G32   29.80R
$$

NDZ022-023-025-028>030-036>039-047>053-231000-
SOUTHEAST NORTH DAKOTA

CITY           SKY/WX    TMP DP  RH WIND       PRES   REMARKS
FARGO          CLEAR     57  48  72 W8        29.74S
JAMESTOWN      PTCLDY    58  51  78 NW24G32   29.81S
$$




USA.gov is the U.S. government's official web portal to all federal, state and local government web resources and services.